Tracking 30995 objects as of 5-Jul-2025
HD Live streaming from Space Station
objects crossing your sky now

SL-12 R/B(2)

Track SL-12 R/B(2) now!


NORAD ID: 19754
Int'l Code: 1989-001F
Perigee: 19,072.8 km
Apogee: 19,150.4 km
Inclination: 64.8 °
Period: 674.7 minutes
Semi major axis: 25482 km
RCS: 1.4062 m2 (large)
Launch date: January 10, 1989
Source: Commonwealth of Independent States (former USSR) (CIS)
Launch site: TYURATAM MISSILE AND SPACE COMPLEX (TTMTR)

Note: This is a ROCKET BODY
Your satellite tracking list
STARLINK-4078
Track 1 satellite(s)




NASA's NSSDC Master Catalog

Two Line Element Set (TLE):
1 19754U 89001F   25181.47730363 -.00000034  00000-0  00000-0 0  9992
2 19754  64.7598  82.8797 0015234 237.4564 302.5946  2.13421080284198
Source of the keplerian elements: AFSPC